�N����,����,�g�[���i���ԁj���x,�g�[�����x,��g�[���i���ցj���x,����
 2003/01/01, 0:00,20.3,56,11.1,10.8
 2003/01/01, 0:15,20.4,55.5,10.9,10.8
 2003/01/01, 0:30,20.4,57,10.9,10.8
 2003/01/01, 0:45,20.9,54,10.9,10.8
 2003/01/01, 1:00,20.6,56,10.8,10.8
 2003/01/01, 1:15,21,54,10.8,10.7
 2003/01/01, 1:30,21.5,53,10.7,10.7
 2003/01/01, 1:45,21.4,52.5,10.6,10.7
 2003/01/01, 2:00,20.3,53,10.6,10.9
 2003/01/01, 2:15,19.9,52.5,10.6,10.8
 2003/01/01, 2:30,20,53,10.4,10.8
 2003/01/01, 2:45,19.5,54.5,10.4,10.8
 2003/01/01, 3:00,19.6,53,10.4,10.8
 2003/01/01, 3:15,19.5,53.5,10.4,10.8
 2003/01/01, 3:30,19.4,54,10.4,10.7
 2003/01/01, 3:45,19.4,50.5,10.4,10.7
 2003/01/01, 4:00,19.4,53,10.4,10.7
 2003/01/01, 4:15,19.4,53,10.2,10.6
 2003/01/01, 4:30,18.8,53,10.3,10.6
 2003/01/01, 4:45,18.5,54,10.2,10.6
 2003/01/01, 5:00,18.1,55,10.3,10.5
 2003/01/01, 5:15,18.1,54.5,10.3,10.5
 2003/01/01, 5:30,16.7,50,10.3,10.5
 2003/01/01, 5:45,15.6,51.5,10.3,10.5
 2003/01/01, 6:00,14.9,53,10.3,10.4
 2003/01/01, 6:15,14.3,54.5,10.2,10.4
 2003/01/01, 6:30,13.8,55,10.2,10.4
 2003/01/01, 6:45,13.4,56,10.1,10.4
 2003/01/01, 7:00,13.1,57,10.1,10.4
 2003/01/01, 7:15,12.9,57.5,10,10.4
 2003/01/01, 7:30,12.6,58,10,10.3
 2003/01/01, 7:45,12.4,58,10.1,10.4
 2003/01/01, 8:00,12.2,59,10,10.7
 2003/01/01, 8:15,12.1,59,10,10.7
 2003/01/01, 8:30,11.9,59,10,10.6
 2003/01/01, 8:45,11.9,59,10.1,10.6
 2003/01/01, 9:00,11.7,59,10.1,10.6
 2003/01/01, 9:15,11.7,59,10.1,10.6
 2003/01/01, 9:30,11.6,59,10.1,10.6
 2003/01/01, 9:45,11.6,60,10.1,10.6
 2003/01/01,10:00,12.1,60,10.3,10.5
 2003/01/01,10:15,16.1,56.5,10.4,10.4
 2003/01/01,10:30,17.7,58,10.4,10
 2003/01/01,10:45,18.9,55.5,10.6,10
 2003/01/01,11:00,19.8,54,10.8,10
 2003/01/01,11:15,19.5,49.5,10.9,10.1
 2003/01/01,11:30,19.6,51,11,10.1
 2003/01/01,11:45,19.9,51.5,11.1,9.9
 2003/01/01,12:00,20,51,11.3,9.8
 2003/01/01,12:15,20.6,49.5,11.5,9.9
 2003/01/01,12:30,20.7,49,11.6,9.9
 2003/01/01,12:45,20.8,47,11.9,9.9
 2003/01/01,13:00,19.6,50,11.9,9.9
 2003/01/01,13:15,19.4,50.5,11.8,9.9
 2003/01/01,13:30,20,46,11.8,9.9
 2003/01/01,13:45,19.1,48.5,11.8,10
 2003/01/01,14:00,19.4,50,11.9,10
 2003/01/01,14:15,19.2,51.5,11.9,10
 2003/01/01,14:30,19.3,51,11.9,10.1
 2003/01/01,14:45,17.9,52,11.8,10.1
 2003/01/01,15:00,17.2,53,11.7,10.1
 2003/01/01,15:15,17.5,52.5,11.8,10.1
 2003/01/01,15:30,19,51,11.6,10.2
 2003/01/01,15:45,19,51,11.6,10.2
 2003/01/01,16:00,19.3,51,11.7,10.2
 2003/01/01,16:15,19.1,53.5,11.6,10.3
 2003/01/01,16:30,19.2,54,11.5,10.3
 2003/01/01,16:45,19.4,55,11.4,10.3
 2003/01/01,17:00,19.5,56,11.5,10.4
 2003/01/01,17:15,18.6,55,11.4,10.4
 2003/01/01,17:30,18.3,55,11.3,10.4
 2003/01/01,17:45,18.8,52.5,11.2,10.4
 2003/01/01,18:00,20.6,49,11.3,10.5
 2003/01/01,18:15,20.1,49.5,11.4,10.5
 2003/01/01,18:30,20.1,51,11.4,10.1
 2003/01/01,18:45,19.8,53.5,11.4,10.1
 2003/01/01,19:00,19.7,56,11.3,10.1
 2003/01/01,19:15,20.3,52.5,11.2,10.1
 2003/01/01,19:30,20.8,53,11.2,10.2
 2003/01/01,19:45,21,55,11.1,10.2
 2003/01/01,20:00,20.7,58,11.1,10.2
 2003/01/01,20:15,20.7,56,11.1,10.2
 2003/01/01,20:30,20.1,57,11,10.2
 2003/01/01,20:45,20.1,56.5,10.9,10.3
 2003/01/01,21:00,20.1,54,10.9,10.3
 2003/01/01,21:15,20.4,52,10.8,10.3
 2003/01/01,21:30,20.9,52,10.7,10.3
 2003/01/01,21:45,21,50,10.7,10.3
 2003/01/01,22:00,20.5,51,10.7,10.4
 2003/01/01,22:15,20.2,51,10.9,10.4
 2003/01/01,22:30,20.5,50,11.1,10.4
 2003/01/01,22:45,20.6,51.5,11,10.4
 2003/01/01,23:00,20.7,52,10.8,10.5
 2003/01/01,23:15,21.4,51,10.8,10.5
 2003/01/01,23:30,21.8,54,10.6,10.5
 2003/01/01,23:45,22.1,50.5,10.4,10.5
 2003/01/02, 0:00,21.7,51,10.4,10.5
 2003/01/02, 0:15,21.4,52,10.2,10.5
 2003/01/02, 0:30,21.6,51,10.3,10.5
 2003/01/02, 0:45,21.4,51,10.4,10.2
 2003/01/02, 1:00,21.6,50,10.3,10.1
 2003/01/02, 1:15,21.4,50,10.2,10.1
 2003/01/02, 1:30,21.8,50,10.2,10.1
 2003/01/02, 1:45,21.6,50,10.2,10.1
 2003/01/02, 2:00,21.6,50,10.2,10.1
 2003/01/02, 2:15,21.2,50.5,10.3,10.1
 2003/01/02, 2:30,19.4,51,10.3,10.1
 2003/01/02, 2:45,18.4,55,10.1,10.1
 2003/01/02, 3:00,17.6,57,10.1,10.1
 2003/01/02, 3:15,17,57,9.9,10.1
 2003/01/02, 3:30,16.4,57,9.9,10
 2003/01/02, 3:45,15.9,57,9.9,10
 2003/01/02, 4:00,15.4,57,9.7,10
 2003/01/02, 4:15,15,57,9.7,10
 2003/01/02, 4:30,14.7,57,9.7,10
 2003/01/02, 4:45,14.4,58,9.6,9.9
 2003/01/02, 5:00,14.1,58,9.4,9.9
 2003/01/02, 5:15,13.8,58.5,9.4,9.9
 2003/01/02, 5:30,13.5,58,9.3,9.9
 2003/01/02, 5:45,13.2,59,9.2,9.9
 2003/01/02, 6:00,13.1,59,9.1,9.9
 2003/01/02, 6:15,12.8,59,9.1,9.8
 2003/01/02, 6:30,12.6,59,9,9.8
 2003/01/02, 6:45,12.4,59,8.9,10.9
 2003/01/02, 7:00,12.2,59,8.9,10.6
 2003/01/02, 7:15,12,60,8.8,10.5
 2003/01/02, 7:30,11.9,60,8.8,10.5
 2003/01/02, 7:45,11.6,59,8.7,10.4
 2003/01/02, 8:00,11.5,60,8.8,10.4
 2003/01/02, 8:15,12.6,58,8.8,10.3
 2003/01/02, 8:30,16.4,52,8.8,10.3
 2003/01/02, 8:45,17.9,49,8.9,10.2
 2003/01/02, 9:00,19,49,8.9,10.2
 2003/01/02, 9:15,19.8,48.5,9,10.1
 2003/01/02, 9:30,20.5,48,9.2,10.1
 2003/01/02, 9:45,21,45,9.3,9.8
 2003/01/02,10:00,20.7,45,9.4,9.8
 2003/01/02,10:15,20.4,47,9.6,9.8
 2003/01/02,10:30,20.3,45,9.7,9.8
 2003/01/02,10:45,20.9,48,9.6,9.8
 2003/01/02,11:00,21.4,48,9.7,9.7
 2003/01/02,11:15,21.1,48.5,9.8,9.7
 2003/01/02,11:30,21.5,46,10,9.7
 2003/01/02,11:45,22,47.5,10.2,9.5
 2003/01/02,12:00,22.3,46,10.4,9.5
 2003/01/02,12:15,22,44.5,10.4,9.5
 2003/01/02,12:30,21.6,44,10.4,9.5
 2003/01/02,12:45,20.9,46,10.6,9.5
 2003/01/02,13:00,21,47,10.6,9.5
 2003/01/02,13:15,20.8,48,10.6,9.6
 2003/01/02,13:30,21.4,48,10.8,9.6
 2003/01/02,13:45,21.5,46.5,11.2,9.6
 2003/01/02,14:00,21.7,48,11.5,9.6
 2003/01/02,14:15,21.7,49.5,11.1,9.6
 2003/01/02,14:30,21.3,51,11.2,9.6
 2003/01/02,14:45,21.4,49.5,11.6,9.6
 2003/01/02,15:00,21.4,49,11.7,9.7
 2003/01/02,15:15,21.5,49.5,11.6,9.7
 2003/01/02,15:30,21.4,50,11.4,9.7
 2003/01/02,15:45,21.1,48.5,11.3,9.7
 2003/01/02,16:00,20.2,46,11.2,9.7
 2003/01/02,16:15,19.8,48.5,11.1,9.8
 2003/01/02,16:30,19.6,49,10.9,9.8
 2003/01/02,16:45,19.6,50,10.9,9.8
 2003/01/02,17:00,19.5,50,10.7,9.8
 2003/01/02,17:15,19.5,48.5,10.6,9.8
 2003/01/02,17:30,20.9,48,10.4,9.8
 2003/01/02,17:45,21.1,48.5,10.5,9.8
 2003/01/02,18:00,21.4,49,10.3,9.9
 2003/01/02,18:15,21.2,50,10.3,9.9
 2003/01/02,18:30,21.7,51,10.2,9.9
 2003/01/02,18:45,21.6,52.5,10.1,10.2
 2003/01/02,19:00,21.9,52,10.1,10.2
 2003/01/02,19:15,21.2,52,10.1,10.2
 2003/01/02,19:30,21.3,50,10,10.2
 2003/01/02,19:45,21.1,49.5,10,10.2
 2003/01/02,20:00,21.4,50,10,10.2
 2003/01/02,20:15,21.5,48.5,9.9,10.2
 2003/01/02,20:30,21.7,48,9.9,10.2
 2003/01/02,20:45,21.7,50,9.8,10.2
 2003/01/02,21:00,21.6,51,9.7,10.1
 2003/01/02,21:15,21.3,52.5,9.6,10.1
 2003/01/02,21:30,20.4,55,9.6,10.1
 2003/01/02,21:45,19.8,53.5,9.5,10.1
 2003/01/02,22:00,21.4,55,9.5,9.6
 2003/01/02,22:15,20,56,9.6,9.6
 2003/01/02,22:30,18.9,59,9.6,9.6
 2003/01/02,22:45,20.3,54.5,9.7,9.6
 2003/01/02,23:00,20.3,51,9.8,9.6
 2003/01/02,23:15,20.6,52,10,9.6
 2003/01/02,23:30,21.1,52,10,9.6
 2003/01/02,23:45,20.9,51,10,9.6
 2003/01/03, 0:00,19.9,53,10.3,9.6
 2003/01/03, 0:15,21.9,49.5,10.2,9.6
 2003/01/03, 0:30,22.2,50,10.1,9.6
 2003/01/03, 0:45,22.4,50,10.1,9.6
 2003/01/03, 1:00,22.7,51,10.1,9.6
 2003/01/03, 1:15,22.1,51.5,10.1,9.6
 2003/01/03, 1:30,21.8,53,10.1,9.6
 2003/01/03, 1:45,22,51.5,10.1,9.5
 2003/01/03, 2:00,21.7,52,10.2,9.5
 2003/01/03, 2:15,21.5,52.5,10.1,9.5
 2003/01/03, 2:30,21.4,53,10.1,9.5
 2003/01/03, 2:45,21.3,52.5,10.1,9.5
 2003/01/03, 3:00,21.3,52,10.1,9.5
 2003/01/03, 3:15,21.4,50.5,10.1,9.9
 2003/01/03, 3:30,21.1,50,10,9.9
 2003/01/03, 3:45,21.1,50.5,9.9,9.9
 2003/01/03, 4:00,21,52,9.9,9.8
 2003/01/03, 4:15,21,51.5,9.8,9.8
 2003/01/03, 4:30,20,50,9.8,9.8
 2003/01/03, 4:45,18.5,49.5,9.8,9.8
 2003/01/03, 5:00,17.1,49,9.8,9.7
 2003/01/03, 5:15,16.2,49.5,9.9,9.7
 2003/01/03, 5:30,15.4,51,9.7,9.7
 2003/01/03, 5:45,14.9,51.5,9.8,9.7
 2003/01/03, 6:00,14.3,53,9.6,9.7
 2003/01/03, 6:15,13.9,53,9.6,9.6
 2003/01/03, 6:30,13.5,53,9.5,9.6
 2003/01/03, 6:45,13.1,54,9.4,9.9
 2003/01/03, 7:00,12.8,54,9.3,10.2
 2003/01/03, 7:15,12.5,55,9.3,10.1
 2003/01/03, 7:30,12.3,56,9.1,10.1
 2003/01/03, 7:45,12,56,9.1,10.1
 2003/01/03, 8:00,11.9,56,9.1,10
 2003/01/03, 8:15,13.1,56.5,9.1,10
 2003/01/03, 8:30,15.6,53,9.2,10
 2003/01/03, 8:45,17.1,50.5,9.2,9.9
 2003/01/03, 9:00,20.4,45,9.3,9.9
 2003/01/03, 9:15,21,44,9.4,9.9
 2003/01/03, 9:30,19.6,48,9.4,9.7
 2003/01/03, 9:45,20.5,45.5,9.4,9.7
 2003/01/03,10:00,21.2,44,9.3,9.6
 2003/01/03,10:15,20.9,48,9.4,9.6
 2003/01/03,10:30,20.7,52,9.4,9.6
 2003/01/03,10:45,21.1,53.5,9.4,9.6
 2003/01/03,11:00,21.1,56,9.4,9.6
 2003/01/03,11:15,21.5,56,9.4,9.6
 2003/01/03,11:30,21.9,52,9.5,9.6
 2003/01/03,11:45,21.4,56.5,9.5,9.6
 2003/01/03,12:00,21.1,58,9.5,9.6
 2003/01/03,12:15,21.5,55.5,9.4,9.6
 2003/01/03,12:30,21.2,56,9.5,9.6
 2003/01/03,12:45,21.9,54.5,9.6,9.6
 2003/01/03,13:00,21.3,55,9.7,9.5
 2003/01/03,13:15,20.8,55.5,9.6,9.6
 2003/01/03,13:30,20.1,57,9.7,9.8
 2003/01/03,13:45,20.4,55.5,9.9,9.7
 2003/01/03,14:00,20.2,54,10,9.7
 2003/01/03,14:15,20.6,55.5,10,10.1
 2003/01/03,14:30,21,56,10,10
 2003/01/03,14:45,21.4,56.5,10,10
 2003/01/03,15:00,21.6,57,10,10
 2003/01/03,15:15,21.6,56,10,10
 2003/01/03,15:30,21.7,56,9.9,10
 2003/01/03,15:45,21.6,56,10,10
 2003/01/03,16:00,21.8,57,10,10
 2003/01/03,16:15,21.8,56.5,10.1,9.9
 2003/01/03,16:30,21.8,55,10.1,9.9
 2003/01/03,16:45,21.7,55.5,10.2,9.8
 2003/01/03,17:00,20.9,54,10.2,9.7
 2003/01/03,17:15,20.8,55.5,10.2,9.6
 2003/01/03,17:30,20.8,56,10.3,9.6
 2003/01/03,17:45,21,56.5,10.4,9.9
 2003/01/03,18:00,21,56,10.4,9.9
 2003/01/03,18:15,18.6,54,11.3,9.9
 2003/01/03,18:30,16.8,56,11.6,9.9
 2003/01/03,18:45,15.8,59,11.6,9.9
 2003/01/03,19:00,15.1,61,11.4,9.9
 2003/01/03,19:15,14.6,62.5,11.4,9.9
 2003/01/03,19:30,14.2,64,11.3,9.9
 2003/01/03,19:45,13.8,64.5,11.2,9.9
 2003/01/03,20:00,13.5,65,11.1,9.9
 2003/01/03,20:15,13.2,66.5,11,9.9
 2003/01/03,20:30,13,67,10.8,9.9
 2003/01/03,20:45,12.8,67.5,10.8,9.9
 2003/01/03,21:00,12.6,69,10.7,9.9
 2003/01/03,21:15,12.4,69,10.7,9.9
 2003/01/03,21:30,13,69,10.7,9.9
 2003/01/03,21:45,19,55.5,10.6,9.9
 2003/01/03,22:00,19.3,56,10.5,9.9
 2003/01/03,22:15,19.8,56.5,10.6,9.9
 2003/01/03,22:30,19.7,59,10.6,10
 2003/01/03,22:45,20,60,10.6,10
 2003/01/03,23:00,20.1,59,10.6,10
 2003/01/03,23:15,20,59,10.6,9.8
 2003/01/03,23:30,20.9,57,10.6,9.8
 2003/01/03,23:45,21,54.5,10.6,9.8
 2003/01/04, 0:00,22,52,10.6,9.8
 2003/01/04, 0:15,22.2,52,10.6,9.8
 2003/01/04, 0:30,22.4,52,10.6,9.9
 2003/01/04, 0:45,21.9,52,10.7,9.9
 2003/01/04, 1:00,21.1,54,10.7,9.9
 2003/01/04, 1:15,20.8,55,10.7,9.9
 2003/01/04, 1:30,20.6,57,10.7,9.9
 2003/01/04, 1:45,20.5,55.5,10.6,9.9
 2003/01/04, 2:00,19.9,56,10.6,9.9
 2003/01/04, 2:15,19.4,59,10.6,9.9
 2003/01/04, 2:30,18.4,59,10.6,10.4
 2003/01/04, 2:45,17.7,60.5,10.6,10.4
 2003/01/04, 3:00,17.1,61,10.6,10.4
 2003/01/04, 3:15,16.2,61,10.6,10.4
 2003/01/04, 3:30,15.8,62,10.5,10.4
 2003/01/04, 3:45,15.3,62,10.4,10.4
 2003/01/04, 4:00,15,63,10.2,10.4
 2003/01/04, 4:15,14.7,64,10.1,10.4
 2003/01/04, 4:30,14.4,64,10.1,10.3
 2003/01/04, 4:45,14.1,65,9.9,10.3
 2003/01/04, 5:00,13.9,65,9.9,10.3
 2003/01/04, 5:15,13.6,65,9.9,10.3
 2003/01/04, 5:30,13.4,66,9.8,10.2
 2003/01/04, 5:45,13.2,66,9.7,10.2
 2003/01/04, 6:00,13,66,9.7,10.2
 2003/01/04, 6:15,12.8,66,9.6,10.2
 2003/01/04, 6:30,12.6,66,9.5,10.2
 2003/01/04, 6:45,12.4,66,9.4,10.1
 2003/01/04, 7:00,12.3,66,9.4,10.1
 2003/01/04, 7:15,12.1,66,9.4,10.1
 2003/01/04, 7:30,12,66,9.5,10.1
 2003/01/04, 7:45,11.6,65,9.4,10.1
 2003/01/04, 8:00,11.5,65,9.4,10
 2003/01/04, 8:15,11.4,65,9.4,10
 2003/01/04, 8:30,11.2,65,9.5,10
 2003/01/04, 8:45,11.1,65,9.4,9.9
 2003/01/04, 9:00,11,65,9.5,9.9
 2003/01/04, 9:15,11,64.5,9.6,8.6
 2003/01/04, 9:30,13.5,59,9.4,9.7
 2003/01/04, 9:45,17,49,9.4,9.7
 2003/01/04,10:00,19.5,48,9.4,9.7
 2003/01/04,10:15,19.6,51,9.6,9.6
 2003/01/04,10:30,20.1,52,9.6,9.6
 2003/01/04,10:45,19.7,53.5,9.7,9.6
 2003/01/04,11:00,19.2,55,9.6,9.6
 2003/01/04,11:15,20,52.5,9.6,9.6
 2003/01/04,11:30,21,47,9.7,9.6
 2003/01/04,11:45,21.6,49,9.9,9.6
 2003/01/04,12:00,20.9,53,10,9.6
 2003/01/04,12:15,20.5,53,10.1,9.6
 2003/01/04,12:30,20.8,54,10.3,9.6
 2003/01/04,12:45,20.4,52.5,10.4,9.6
 2003/01/04,13:00,13.3,38,10.3,9.6
 2003/01/04,13:15,12.6,44.5,10.1,9.6
 2003/01/04,13:30,12.7,52,10,9.6
 2003/01/04,13:45,13.9,50.5,10.1,9.6
 2003/01/04,14:00,17,50,10.2,9.6
 2003/01/04,14:15,19,53.5,10.4,9.6
 2003/01/04,14:30,19.2,58,10.2,9.6
 2003/01/04,14:45,19.8,49.5,10.4,9.6
 2003/01/04,15:00,21.8,47,10.6,9.5
 2003/01/04,15:15,22.7,45.5,10.6,9.4
 2003/01/04,15:30,22.9,47,10.2,9.4
 2003/01/04,15:45,22.5,46,10.2,9.4
 2003/01/04,16:00,21.5,48,10.2,9.4
 2003/01/04,16:15,21.7,48.5,10.1,9.6
 2003/01/04,16:30,22,47,10.1,9.6
 2003/01/04,16:45,19.8,48.5,10.3,9.6
 2003/01/04,17:00,17.1,48,10.6,9.6
 2003/01/04,17:15,17.8,47.5,10.4,9.6
 2003/01/04,17:30,20.7,46,10.1,9.6
 2003/01/04,17:45,20.6,48,9.9,9.6
 2003/01/04,18:00,21,48,9.8,9.6
 2003/01/04,18:15,20.9,48.5,9.8,9.6
 2003/01/04,18:30,21.1,48,9.7,9.6
 2003/01/04,18:45,21.4,48,9.6,9.6
 2003/01/04,19:00,21.4,48,9.6,9.6
 2003/01/04,19:15,21,51,9.4,9.6
 2003/01/04,19:30,21.2,51,9.4,9.6
 2003/01/04,19:45,20.8,51.5,9.4,9.6
 2003/01/04,20:00,20.3,52,9.3,9.6
 2003/01/04,20:15,20.5,52.5,9.2,9.6
 2003/01/04,20:30,20.5,53,9.1,9.5
 2003/01/04,20:45,20.2,54.5,8.9,9.5
 2003/01/04,21:00,20.1,53,8.9,9.5
 2003/01/04,21:15,20.2,52.5,8.9,9.5
 2003/01/04,21:30,20.6,52,8.7,9.5
 2003/01/04,21:45,20.3,49.5,8.6,9.5
 2003/01/04,22:00,20.4,49,8.6,9.4
 2003/01/04,22:15,21.3,47,8.6,9.4
 2003/01/04,22:30,21.6,46,8.6,9.3
 2003/01/04,22:45,21.1,48,8.6,9.3
 2003/01/04,23:00,21.3,48,8.5,9.3
 2003/01/04,23:15,21.2,46,8.5,9.3
 2003/01/04,23:30,21.1,49,8.4,9.2
 2003/01/04,23:45,21.1,49.5,8.4,9.2
 2003/01/05, 0:00,21,49,8.3,9.2
 2003/01/05, 0:15,20.9,49,8.3,9.2
 2003/01/05, 0:30,21,49,8.3,9.1
 2003/01/05, 0:45,21.2,46.5,8.3,9.1
 2003/01/05, 1:00,20.7,49,8.3,9.1
 2003/01/05, 1:15,20.4,48.5,8.2,9.1
 2003/01/05, 1:30,20.1,50,8.1,9.1
 2003/01/05, 1:45,20,44.5,8.4,9.1
 2003/01/05, 2:00,17.6,45,8.3,9.1
 2003/01/05, 2:15,16.5,47.5,8.1,9
 2003/01/05, 2:30,15.7,49,8,9
 2003/01/05, 2:45,15.1,50.5,7.9,9
 2003/01/05, 3:00,14.4,51,7.8,9
 2003/01/05, 3:15,13.9,51.5,7.8,8.9
 2003/01/05, 3:30,13.5,52,7.6,8.9
 2003/01/05, 3:45,13.1,52.5,7.5,8.9
 2003/01/05, 4:00,12.6,53,7.5,8.9
 2003/01/05, 4:15,12.3,53,7.3,8.8
 2003/01/05, 4:30,12,53,7.2,8.8
 2003/01/05, 4:45,11.6,53,7.2,8.8
 2003/01/05, 5:00,11.3,53,7,8.7
 2003/01/05, 5:15,11,53.5,6.8,8.7
 2003/01/05, 5:30,10.8,54,6.7,8.6
 2003/01/05, 5:45,10.5,54,6.6,8.6
 2003/01/05, 6:00,10.3,54,6.5,8.6
 2003/01/05, 6:15,10.1,54,6.3,8.5
 2003/01/05, 6:30,9.8,54,6.2,8.5
 2003/01/05, 6:45,9.6,54,6.2,8.4
 2003/01/05, 7:00,9.4,55,6.1,8.4
 2003/01/05, 7:15,9.2,54,5.9,8.3
 2003/01/05, 7:30,9,55,5.9,8.3
 2003/01/05, 7:45,8.9,54.5,5.8,8.2
 2003/01/05, 8:00,8.6,54,5.8,8.2
 2003/01/05, 8:15,8.6,54,5.8,8.1
 2003/01/05, 8:30,8.5,54,5.7,8.1
 2003/01/05, 8:45,8.5,54,5.7,8
 2003/01/05, 9:00,8.5,54,5.7,8
 2003/01/05, 9:15,8.5,55,5.7,7.9
 2003/01/05, 9:30,8.6,55,5.7,7.9
 2003/01/05, 9:45,10.3,52.5,5.9,8.4
 2003/01/05,10:00,13.3,51,5.9,8.3
 2003/01/05,10:15,14.9,51.5,5.9,8.3
 2003/01/05,10:30,16.4,51,6,8.2
 2003/01/05,10:45,18.4,46.5,6.2,8.2
 2003/01/05,11:00,19.3,46,6.2,8.1
 2003/01/05,11:15,20.7,45,6.4,8.1
 2003/01/05,11:30,21.7,43,6.6,8
 2003/01/05,11:45,22,41.5,6.7,8
 2003/01/05,12:00,21.8,41,6.9,8
 2003/01/05,12:15,21.7,40.5,7.2,8.3
 2003/01/05,12:30,21.9,41,7.4,8.8
 2003/01/05,12:45,21.9,42,7.6,8.8
 2003/01/05,13:00,21.5,42,7.6,8.7
 2003/01/05,13:15,21.5,40.5,7.8,8.9
 2003/01/05,13:30,21.4,40,7.9,8.9
 2003/01/05,13:45,21.4,42,7.9,8.9
 2003/01/05,14:00,21.1,42,8.1,8.8
 2003/01/05,14:15,21,42,8.2,8.8
 2003/01/05,14:30,21,42,8.3,8.8
 2003/01/05,14:45,20.9,42.5,8.6,8.7
 2003/01/05,15:00,20.7,43,8.6,8.7
 2003/01/05,15:15,20.9,41.5,8.6,8.6
 2003/01/05,15:30,20.5,44,8.5,8.2
 2003/01/05,15:45,20.5,44,8.2,8.2
 2003/01/05,16:00,20.6,42,8.2,8.2
 2003/01/05,16:15,21.1,41,8.1,8.5
 2003/01/05,16:30,20.7,41,7.9,8.4
 2003/01/05,16:45,21,41,7.8,8.4
 2003/01/05,17:00,21.6,40,7.7,8.4
 2003/01/05,17:15,21.7,38.5,7.6,8.4
 2003/01/05,17:30,21.8,40,7.5,8.4
 2003/01/05,17:45,21.9,41,7.3,8.3
 2003/01/05,18:00,21.4,41,7.3,8.3
 2003/01/05,18:15,20.6,42,7.2,8.3
 2003/01/05,18:30,21,41,7.2,8.2
 2003/01/05,18:45,21,40.5,7,8.2
 2003/01/05,19:00,20.9,39,7,8.2
 2003/01/05,19:15,20.9,39,6.9,8.1
 2003/01/05,19:30,20.8,41,6.9,8.1
 2003/01/05,19:45,20.1,43.5,6.7,8.1
 2003/01/05,20:00,20.5,43,6.5,8
 2003/01/05,20:15,20.2,42.5,6.4,8
 2003/01/05,20:30,19.6,46,6.4,7.9
 2003/01/05,20:45,20,44.5,6.2,7.9
 2003/01/05,21:00,20.6,43,6.2,7.9
 2003/01/05,21:15,20.6,40.5,6.3,7.8
 2003/01/05,21:30,21.6,39,6.2,7.8
 2003/01/05,21:45,21.5,41,6.2,7.7
 2003/01/05,22:00,21.2,42,6.4,7.7
 2003/01/05,22:15,21.4,41,6.7,7.7
 2003/01/05,22:30,22.2,40,6.8,7.6
 2003/01/05,22:45,22,41,6.7,7.6
 2003/01/05,23:00,22.1,40,6.7,7.5
 2003/01/05,23:15,21.5,41.5,6.7,7.4
 2003/01/05,23:30,21.1,42,6.7,7.4
 2003/01/05,23:45,21.4,40.5,6.7,7.3
 2003/01/06, 0:00,20.6,43,6.5,7.3
 2003/01/06, 0:15,20,43.5,6.6,7.9
 2003/01/06, 0:30,19.7,44,6.6,8.3
 2003/01/06, 0:45,19.5,44,6.4,8.2
 2003/01/06, 1:00,19.1,46,6.4,8.1
 2003/01/06, 1:15,18.9,44.5,6.4,8.1
 2003/01/06, 1:30,18.9,46,6.3,8
 2003/01/06, 1:45,18.6,46,6.4,7.9
 2003/01/06, 2:00,17.7,44,6.4,7.8
 2003/01/06, 2:15,16.2,46,6.3,7.8
 2003/01/06, 2:30,15.2,47,6.3,7.7
 2003/01/06, 2:45,14.4,48,6.2,7.6
 2003/01/06, 3:00,13.8,49,6.1,7.5
 2003/01/06, 3:15,13.2,49,6.1,7.4
 2003/01/06, 3:30,12.7,49,5.9,7.3
 2003/01/06, 3:45,12.2,49.5,5.9,7.2
 2003/01/06, 4:00,11.9,50,5.9,7.2
 2003/01/06, 4:15,11.4,50,5.8,7.1
 2003/01/06, 4:30,11.1,51,5.6,7
 2003/01/06, 4:45,10.8,51,5.6,6.9
 2003/01/06, 5:00,10.5,51,5.5,6.9
 2003/01/06, 5:15,10.2,51.5,5.4,6.8
 2003/01/06, 5:30,10,51,5.3,6.7
 2003/01/06, 5:45,9.8,51,5.2,6.7
 2003/01/06, 6:00,9.5,52,5.2,6.6
 2003/01/06, 6:15,9.3,51,5.1,6.6
 2003/01/06, 6:30,9,51,5,6.5
 2003/01/06, 6:45,8.9,52,4.8,6.4
 2003/01/06, 7:00,8.6,52,4.8,6.3
 2003/01/06, 7:15,8.6,53,4.8,6.2
 2003/01/06, 7:30,10.9,52,4.8,8.5
 2003/01/06, 7:45,13,52.5,4.7,8.4
 2003/01/06, 8:00,14.1,52,4.8,8.2
 2003/01/06, 8:15,15.1,50.5,4.8,8.1
 2003/01/06, 8:30,16.2,50,5,8
 2003/01/06, 8:45,16.8,50,5.2,7.9
 2003/01/06, 9:00,17.3,50,5.3,7.8
 2003/01/06, 9:15,17.5,48.5,5.3,7.8
 2003/01/06, 9:30,17.6,48,5.5,7.7
 2003/01/06, 9:45,19.1,45,5.5,7.6
 2003/01/06,10:00,19.3,47,5.7,7.5
 2003/01/06,10:15,19.8,45.5,5.8,7.4
 2003/01/06,10:30,20.6,44,6.1,7.4
 2003/01/06,10:45,20.9,44.5,6.2,7.3
 2003/01/06,11:00,20.6,45,6.6,7.3
 2003/01/06,11:15,19.9,44,6.7,7.2
 2003/01/06,11:30,19.3,40,7.1,7.2
 2003/01/06,11:45,20.9,44.5,7.2,7.2
 2003/01/06,12:00,20.8,45,7.2,7.1
 2003/01/06,12:15,20.6,47,7.4,7.1
 2003/01/06,12:30,20.5,47,7.5,7.1
 2003/01/06,12:45,20.5,47.5,7.7,7.1
 2003/01/06,13:00,21,48,7.8,7.1
 2003/01/06,13:15,20.9,48,8.1,7.1
 2003/01/06,13:30,21.2,47,8.4,7.1
 2003/01/06,13:45,19.8,39,9.9,7.1
 2003/01/06,14:00,17.6,40,10.4,7.1
 2003/01/06,14:15,16.6,42,10.6,7.1
 2003/01/06,14:30,18.4,43,10.4,7.1
 2003/01/06,14:45,20.4,41,10.1,7.2
 2003/01/06,15:00,20.2,42,9.8,7.2
 2003/01/06,15:15,20.9,42,9.6,7.2
 2003/01/06,15:30,21.3,41,9.4,7.2
 2003/01/06,15:45,21.5,41.5,9.3,7.3
 2003/01/06,16:00,21.3,41,9.3,7.3
 2003/01/06,16:15,20.9,41,9.1,7.3
 2003/01/06,16:30,21.2,40,9,7.4
 2003/01/06,16:45,21.8,40.5,8.9,7.4
 2003/01/06,17:00,21.2,42,8.8,7.4
 2003/01/06,17:15,21.3,43.5,8.8,7.5
 2003/01/06,17:30,20.9,42,8.7,7.5
 2003/01/06,17:45,20.6,43,8.6,7.5
 2003/01/06,18:00,20.6,43,8.5,7.5
 2003/01/06,18:15,20.6,44.5,8.4,7.5
 2003/01/06,18:30,20.6,46,8.3,7.5
 2003/01/06,18:45,20.6,46,8.3,7.6
 2003/01/06,19:00,20.4,45,8.3,7.6
 2003/01/06,19:15,20.6,45.5,8.2,7.6
 2003/01/06,19:30,21,46,8.3,7.6
 2003/01/06,19:45,21.1,46,8.2,7.6
 2003/01/06,20:00,20.5,44,8.2,7.6
 2003/01/06,20:15,20,48.5,8.2,7.5
 2003/01/06,20:30,19.8,49,8.1,7.5
 2003/01/06,20:45,19.9,48.5,8.1,7.5
 2003/01/06,21:00,21.5,44,8.1,7.5
 2003/01/06,21:15,22,44.5,8.1,7.5
 2003/01/06,21:30,22,45,8.1,7.4
 2003/01/06,21:45,22.2,45.5,8.2,7.4
 2003/01/06,22:00,21.4,46,8.4,7.4
 2003/01/06,22:15,21.1,46.5,8.5,7.3
 2003/01/06,22:30,20.7,46,8.5,7.3
 2003/01/06,22:45,20.6,45.5,8.4,7.3
 2003/01/06,23:00,20.6,45,8.4,7.3
 2003/01/06,23:15,21.1,45,8.2,7.2
 2003/01/06,23:30,20.9,46,8.2,7.2
 2003/01/06,23:45,21.9,49.5,8.1,7.2
 2003/01/07, 0:00,21.9,51,8.1,7.1
 2003/01/07, 0:15,21.9,51,8.1,7.1
 2003/01/07, 0:30,21.8,46,8.1,7
 2003/01/07, 0:45,21.8,46.5,8.1,7
 2003/01/07, 1:00,21.2,48,8,7
 2003/01/07, 1:15,21,48.5,7.9,6.9
 2003/01/07, 1:30,20.7,48,7.9,6.9
 2003/01/07, 1:45,20,46.5,7.9,6.8
 2003/01/07, 2:00,18.4,48,7.8,6.8
 2003/01/07, 2:15,17.4,52,7.8,6.8
 2003/01/07, 2:30,16.7,57,7.6,6.7
 2003/01/07, 2:45,15.9,54.5,7.6,6.7
 2003/01/07, 3:00,15.1,52,7.6,6.6
 2003/01/07, 3:15,14.6,52.5,7.4,6.6
 2003/01/07, 3:30,14,53,7.3,6.5
 2003/01/07, 3:45,13.6,53,7.3,6.4
 2003/01/07, 4:00,13.1,53,7.2,6.4
 2003/01/07, 4:15,12.7,53.5,7.2,6.4
 2003/01/07, 4:30,12.3,54,7,6.3
 2003/01/07, 4:45,12,54,6.8,6.2
 2003/01/07, 5:00,11.7,54,6.8,6.2
 2003/01/07, 5:15,11.4,54.5,6.7,6.2
 2003/01/07, 5:30,11,55,6.5,6.1
 2003/01/07, 5:45,10.8,55,6.4,6.1
 2003/01/07, 6:00,10.5,55,6.4,6.9
 2003/01/07, 6:15,10.3,55,6.2,8.4
 2003/01/07, 6:30,10.1,55,6.1,8.3
 2003/01/07, 6:45,9.9,55,6.1,8.2
 2003/01/07, 7:00,9.6,55,6,8.1
 2003/01/07, 7:15,9.4,55.5,5.9,7.9
 2003/01/07, 7:30,9.4,56,5.9,7.9
 2003/01/07, 7:45,12.4,54.5,5.8,7.6
 2003/01/07, 8:00,14.3,53,5.9,7.3
 2003/01/07, 8:15,16,50.5,5.9,7.2
 2003/01/07, 8:30,17.3,48,5.9,7.1
 2003/01/07, 8:45,18.5,47,5.9,7.1
 2003/01/07, 9:00,20.2,44,6,7
 2003/01/07, 9:15,20.8,43,6.1,6.9
 2003/01/07, 9:30,21.1,44,6.2,6.9
 2003/01/07, 9:45,21.1,44.5,6.3,6.8
 2003/01/07,10:00,20.3,47,6.5,6.7
 2003/01/07,10:15,17.1,41,6.9,6.7
 2003/01/07,10:30,17.8,43,7.2,6.6
 2003/01/07,10:45,18.5,43.5,7.2,6.6
 2003/01/07,11:00,18.5,45,7,6.6
 2003/01/07,11:15,19,43,7.8,6.5
 2003/01/07,11:30,20.5,38,8.5,6.5
 2003/01/07,11:45,21.3,34,8.6,6.5
 2003/01/07,12:00,21.4,34,8.6,6.5
 2003/01/07,12:15,21.4,37,8.9,6.5
 2003/01/07,12:30,21.6,38,8.9,6.5
 2003/01/07,12:45,21.5,40.5,9.1,6.5
 2003/01/07,13:00,21.8,41,9.2,6.5
 2003/01/07,13:15,22.2,40.5,9.6,6.5
 2003/01/07,13:30,22.3,41,9.7,6.5
 2003/01/07,13:45,22.2,41,10,6.6
 2003/01/07,14:00,22.2,42,10.2,6.6
 2003/01/07,14:15,21.9,41,10.5,6.7
 2003/01/07,14:30,21.8,41,10.8,6.7
 2003/01/07,14:45,21.6,41,11.1,6.7
 2003/01/07,15:00,21.8,41,11.2,6.8
 2003/01/07,15:15,21.8,41.5,11.1,6.8
 2003/01/07,15:30,21.5,42,10.8,6.8
 2003/01/07,15:45,21.4,43,10.6,6.9
 2003/01/07,16:00,21.2,43,10.4,6.9
 2003/01/07,16:15,21,43,10.4,6.9
 2003/01/07,16:30,20.4,46,10.3,7
 2003/01/07,16:45,21,45.5,10.1,7.1
 2003/01/07,17:00,21.2,44,10.1,7.1
 2003/01/07,17:15,21.4,45,10,7.1
 2003/01/07,17:30,21.2,44,10,7.2
 2003/01/07,17:45,22,44.5,9.9,7.2
 2003/01/07,18:00,21.9,48,9.8,7.3
 2003/01/07,18:15,21.5,49.5,9.7,7.3
 2003/01/07,18:30,20.8,49,9.7,9.2
 2003/01/07,18:45,21.2,49.5,9.6,9.2
 2003/01/07,19:00,20.7,51,9.5,9.2
 2003/01/07,19:15,20.5,52,9.4,9.1
 2003/01/07,19:30,20.6,54,9.3,9.1
 2003/01/07,19:45,21,56.5,9.3,9.1
 2003/01/07,20:00,20.6,54,9.4,9.1
 2003/01/07,20:15,20.8,53,9.4,9.1
 2003/01/07,20:30,20.8,53,9.4,9.1
 2003/01/07,20:45,21,52,9.4,9
 2003/01/07,21:00,21.4,53,9.4,9
 2003/01/07,21:15,22.5,48.5,9.4,9
 2003/01/07,21:30,21.3,49,9.3,8.9
 2003/01/07,21:45,21.4,49.5,9.2,8.9
 2003/01/07,22:00,21.4,50,9.2,8.9
 2003/01/07,22:15,21.3,49.5,9.2,8.8
 2003/01/07,22:30,21.1,50,9.1,8.8
 2003/01/07,22:45,21,50.5,9,8.6
 2003/01/07,23:00,20.8,51,9,8.5
 2003/01/07,23:15,21,48,9.1,8.5
 2003/01/07,23:30,20.9,47,9.1,8.5
 2003/01/07,23:45,21,47,9.1,8.4